TimeCST,TemperatureF,Dew PointF,Humidity,Sea Level PressureIn,VisibilityMPH,Wind Direction,Wind SpeedMPH,Gust SpeedMPH,PrecipitationIn,Events,Conditions,WindDirDegrees,DateUTC
12:17 AM,37.9,35.4,91,30.03,7.0,Calm,Calm,-,N/A,,Overcast,0,2013-11-21 06:17:00
12:37 AM,37.9,35.6,91,30.03,5.0,Calm,Calm,-,N/A,,Overcast,0,2013-11-21 06:37:00
12:56 AM,38.3,35.8,91,30.04,5.0,Calm,Calm,-,N/A,,Overcast,0,2013-11-21 06:56:00
1:17 AM,38.3,35.6,90,30.04,7.0,Calm,Calm,-,N/A,,Overcast,0,2013-11-21 07:17:00
1:36 AM,38.3,35.6,90,30.05,5.0,Calm,Calm,-,N/A,,Overcast,0,2013-11-21 07:36:00
1:57 AM,37.9,35.8,92,30.05,5.0,Calm,Calm,-,N/A,,Overcast,0,2013-11-21 07:57:00
2:16 AM,37.9,35.6,91,30.06,5.0,Calm,Calm,-,N/A,,Overcast,0,2013-11-21 08:16:00
2:36 AM,37.9,35.8,92,30.07,5.0,Calm,Calm,-,N/A,,Overcast,0,2013-11-21 08:36:00
2:57 AM,38.3,35.8,91,30.08,5.0,Calm,Calm,-,N/A,,Overcast,0,2013-11-21 08:57:00
3:16 AM,38.3,35.8,91,30.07,5.0,Calm,Calm,-,N/A,,Overcast,0,2013-11-21 09:16:00
3:37 AM,38.3,36.0,91,30.08,5.0,Calm,Calm,-,N/A,,Overcast,0,2013-11-21 09:37:00
3:56 AM,38.3,35.8,91,30.08,5.0,WNW,6.9,-,N/A,,Overcast,290,2013-11-21 09:56:00
4:17 AM,36.5,35.2,95,30.09,2.0,WNW,9.2,-,N/A,,Overcast,290,2013-11-21 10:17:00
4:36 AM,35.4,34.7,97,30.09,3.0,WNW,5.8,-,N/A,,Overcast,300,2013-11-21 10:36:00
4:56 AM,34.9,33.8,96,30.10,5.0,WNW,8.1,-,N/A,,Overcast,290,2013-11-21 10:56:00
5:17 AM,34.7,32.9,93,30.11,7.0,WNW,10.4,-,N/A,,Overcast,300,2013-11-21 11:17:00
5:37 AM,33.4,32.0,94,30.13,5.0,WNW,12.7,-,N/A,,Overcast,290,2013-11-21 11:37:00
5:57 AM,32.0,30.7,95,30.14,5.0,WNW,13.8,-,N/A,,Overcast,300,2013-11-21 11:57:00
6:16 AM,31.6,30.2,94,30.15,5.0,NW,12.7,17.3,N/A,,Overcast,320,2013-11-21 12:16:00
6:37 AM,30.0,28.9,96,30.17,5.0,NW,13.8,19.6,N/A,,Overcast,310,2013-11-21 12:37:00
6:56 AM,29.1,28.2,96,30.18,5.0,NNW,12.7,18.4,N/A,,Overcast,330,2013-11-21 12:56:00
7:17 AM,28.4,27.5,96,30.19,7.0,NW,12.7,18.4,N/A,,Overcast,320,2013-11-21 13:17:00
7:37 AM,27.7,26.6,96,30.21,7.0,NW,13.8,19.6,N/A,,Overcast,320,2013-11-21 13:37:00
7:57 AM,27.5,26.2,95,30.23,10.0,NW,12.7,-,N/A,,Overcast,310,2013-11-21 13:57:00
8:16 AM,27.1,25.9,95,30.24,10.0,NW,13.8,17.3,N/A,,Overcast,310,2013-11-21 14:16:00
8:36 AM,26.8,24.8,92,30.24,10.0,NW,13.8,19.6,N/A,,Overcast,320,2013-11-21 14:36:00
8:56 AM,26.8,24.4,91,30.24,10.0,NW,11.5,19.6,N/A,,Overcast,320,2013-11-21 14:56:00
9:17 AM,27.0,23.9,88,30.25,10.0,NW,11.5,17.3,N/A,,Overcast,320,2013-11-21 15:17:00
9:37 AM,27.0,23.4,86,30.26,10.0,NW,10.4,17.3,N/A,,Overcast,320,2013-11-21 15:37:00
9:56 AM,27.3,23.0,84,30.27,10.0,NW,13.8,21.9,N/A,,Overcast,320,2013-11-21 15:56:00
10:17 AM,27.5,22.6,82,30.27,10.0,NNW,15.0,20.7,N/A,,Overcast,340,2013-11-21 16:17:00
10:36 AM,27.7,21.9,79,30.27,10.0,NNW,13.8,21.9,N/A,,Overcast,330,2013-11-21 16:36:00
10:57 AM,27.9,21.6,77,30.29,10.0,NNW,15.0,21.9,N/A,,Overcast,340,2013-11-21 16:57:00
11:16 AM,27.5,21.0,77,30.31,10.0,NNW,17.3,24.2,N/A,,Overcast,340,2013-11-21 17:16:00
11:37 AM,27.7,21.2,77,30.32,10.0,NNW,15.0,18.4,N/A,,Overcast,340,2013-11-21 17:37:00
11:56 AM,28.0,21.2,76,30.32,10.0,North,16.1,20.7,N/A,,Overcast,350,2013-11-21 17:56:00
12:16 PM,27.9,20.5,74,30.32,10.0,NNW,15.0,23.0,N/A,,Overcast,340,2013-11-21 18:16:00
12:36 PM,27.9,20.3,73,30.32,10.0,NNW,13.8,20.7,N/A,,Overcast,330,2013-11-21 18:36:00
12:57 PM,28.4,21.0,74,30.32,10.0,NNW,15.0,18.4,N/A,,Overcast,330,2013-11-21 18:57:00
1:17 PM,28.4,21.2,74,30.32,10.0,NNW,15.0,-,N/A,,Overcast,340,2013-11-21 19:17:00
1:36 PM,27.5,21.7,79,30.33,7.0,NNW,13.8,18.4,N/A,,Overcast,330,2013-11-21 19:36:00
1:57 PM,27.5,22.3,81,30.34,5.0,North,16.1,21.9,N/A,,Haze,350,2013-11-21 19:57:00
2:17 PM,27.1,21.9,81,30.34,5.0,NNW,15.0,-,N/A,,Haze,340,2013-11-21 20:17:00
2:37 PM,27.5,22.1,80,30.35,7.0,NNW,12.7,20.7,N/A,,Overcast,340,2013-11-21 20:37:00
2:56 PM,27.0,22.1,82,30.35,5.0,NNW,12.7,-,N/A,Snow,Light Snow,340,2013-11-21 20:56:00
3:16 PM,27.3,21.2,78,30.36,10.0,NNW,11.5,20.7,N/A,,Overcast,340,2013-11-21 21:16:00
3:36 PM,27.5,20.3,74,30.37,10.0,NNW,16.1,-,N/A,,Overcast,340,2013-11-21 21:36:00
3:57 PM,27.5,20.3,74,30.38,10.0,NNW,13.8,20.7,N/A,,Overcast,330,2013-11-21 21:57:00
4:17 PM,27.5,19.9,73,30.39,10.0,NNW,12.7,20.7,N/A,,Overcast,330,2013-11-21 22:17:00
4:36 PM,27.5,20.1,74,30.40,10.0,NNW,13.8,20.7,N/A,,Overcast,340,2013-11-21 22:36:00
4:56 PM,27.3,19.4,72,30.40,10.0,NNW,15.0,20.7,N/A,,Overcast,330,2013-11-21 22:56:00
5:17 PM,27.3,19.4,72,30.41,10.0,NNW,11.5,-,N/A,,Overcast,340,2013-11-21 23:17:00
5:37 PM,27.3,19.0,71,30.42,10.0,NNW,16.1,20.7,N/A,,Overcast,340,2013-11-21 23:37:00
5:56 PM,27.1,18.5,70,30.42,10.0,NNW,16.1,-,N/A,,Overcast,330,2013-11-21 23:56:00
5:58 PM,27.1,18.3,69,30.43,10.0,NNW,13.8,-,N/A,,Overcast,330,2013-11-21 23:58:00